�N����,����,�~����,�C��,���x,�C��,����,���ϕ���,�ő�u�ԕ���,�ő厞����,���˗�,�I�_���x,�n�����x,�ő啗���N��,DTYPE
"22/05/23","00:10",0.0,17.4,89.0,1003.1,326.7,1.6,2.5,331.4,0.00,15.6,18.9,"00:03:04",1
"22/05/23","00:20",0.0,17.3,89.7,1003.1,337.5,1.3,2.2,328.4,0.00,15.6,18.6,"00:19:28",1
"22/05/23","00:30",0.0,16.9,90.3,1003.1,328.3,1.5,2.1,327.4,0.00,15.3,18.7,"00:24:40",1
"22/05/23","00:40",0.0,16.8,90.9,1003.4,294.0,1.5,2.1,307.1,0.00,15.3,18.7,"00:33:36",1
"22/05/23","00:50",0.0,16.8,91.4,1003.4,279.6,1.6,2.2,269.2,0.00,15.4,18.8,"00:47:44",1
"22/05/23","01:00",0.0,16.8,91.8,1003.4,321.6,2.0,2.9,327.6,0.00,15.5,18.8,"00:52:48",1
"22/05/23","01:10",0.0,16.5,92.2,1003.1,296.2,1.5,2.2,308.6,0.00,15.3,18.8,"01:02:48",1
"22/05/23","01:20",0.0,16.4,92.5,1003.4,313.4,1.3,2.2,328.0,0.00,15.2,18.7,"01:10:08",1
"22/05/23","01:30",0.0,16.3,92.9,1003.4,328.1,1.7,2.1,334.1,0.00,15.2,18.7,"01:27:44",1
"22/05/23","01:40",0.0,16.1,93.1,1003.6,318.9,1.8,2.8,331.5,0.00,15.0,18.6,"01:31:20",1
"22/05/23","01:50",0.0,15.9,93.4,1003.6,277.1,0.7,1.8,320.3,0.00,14.9,18.7,"01:40:40",1
"22/05/23","02:00",0.0,15.9,93.6,1004.1,280.8,1.3,1.9,256.0,0.00,14.9,18.4,"01:50:56",1
"22/05/23","02:10",0.0,16.0,93.8,1003.4,332.8,1.6,2.7,336.3,0.00,15.0,18.4,"02:01:44",1
"22/05/23","02:20",0.0,15.9,94.1,1003.6,339.7,1.7,3.1,344.7,0.00,15.0,18.4,"02:14:48",1
"22/05/23","02:30",0.0,16.0,94.2,1003.6,333.7,1.6,2.5,334.8,0.00,15.1,18.4,"02:22:32",1
"22/05/23","02:40",0.0,16.1,94.4,1003.6,318.8,1.7,2.6,318.9,0.00,15.2,18.4,"02:35:04",1
"22/05/23","02:50",0.0,16.0,94.5,1003.6,318.3,1.1,1.9,337.9,0.00,15.2,18.2,"02:48:40",1
"22/05/23","03:00",0.0,15.8,94.8,1003.8,330.1,1.6,2.6,324.2,0.00,15.0,18.4,"02:56:40",1
"22/05/23","03:10",0.0,15.5,94.8,1003.8,306.1,1.0,2.1,323.2,0.00,14.7,18.3,"03:01:04",1
"22/05/23","03:20",0.0,15.4,95.1,1003.8,297.1,0.8,2.2,339.5,0.00,14.7,18.4,"03:19:12",1
"22/05/23","03:30",0.0,15.4,95.3,1003.8,345.4,1.6,2.7,350.4,0.00,14.7,18.3,"03:20:16",1
"22/05/23","03:40",0.0,15.4,95.4,1004.1,302.9,1.5,2.4,327.9,0.00,14.7,18.2,"03:30:32",1
"22/05/23","03:50",0.0,15.3,95.5,1004.3,320.8,1.7,2.7,341.7,0.00,14.6,18.2,"03:43:12",1
"22/05/23","04:00",0.0,15.2,95.5,1004.1,331.1,1.2,1.8,339.6,0.00,14.5,18.0,"03:53:28",1
"22/05/23","04:10",0.0,14.9,95.7,1004.5,301.5,1.0,1.6,319.5,0.00,14.3,18.2,"04:00:08",1
"22/05/23","04:20",0.0,14.9,95.9,1004.1,319.9,1.0,2.2,314.5,0.00,14.3,18.3,"04:19:16",1
"22/05/23","04:30",0.0,14.9,96.0,1004.5,326.2,1.5,2.2,326.2,0.00,14.3,18.0,"04:29:38",1
"22/05/23","04:40",0.0,15.3,96.1,1004.5,332.4,2.0,2.8,340.0,0.00,14.7,18.0,"04:35:44",1
"22/05/23","04:50",0.0,15.4,96.1,1004.8,336.6,1.6,3.1,342.9,0.00,14.8,17.9,"04:46:56",1
"22/05/23","05:00",0.0,15.3,96.1,1005.0,334.7,2.2,3.1,342.0,0.00,14.7,18.2,"04:59:12",1
"22/05/23","05:10",0.0,15.2,96.3,1005.2,340.4,2.3,3.2,342.5,0.00,14.7,18.1,"05:00:40",1
"22/05/23","05:20",0.0,15.2,96.3,1005.0,329.3,2.2,3.2,315.9,0.00,14.7,17.8,"05:10:16",1
"22/05/23","05:30",0.0,15.0,96.5,1005.2,334.7,2.2,3.5,319.8,0.00,14.5,17.9,"05:29:44",1
"22/05/23","05:40",0.0,15.1,96.6,1005.7,334.5,2.1,2.9,306.4,0.00,14.6,17.9,"05:38:16",1
"22/05/23","05:50",0.0,15.2,96.7,1005.7,335.1,2.3,3.6,340.4,0.00,14.7,17.9,"05:49:28",1
"22/05/23","06:00",0.0,15.3,96.7,1005.7,334.5,2.5,4.1,332.9,0.00,14.8,17.8,"05:50:56",1
"22/05/23","06:10",0.0,15.2,96.8,1006.0,332.0,2.3,3.3,324.3,0.01,14.7,17.8,"06:08:52",1
"22/05/23","06:20",0.0,15.4,96.8,1006.2,334.9,2.7,4.0,347.2,0.02,14.9,17.9,"06:14:32",1
"22/05/23","06:30",0.0,15.7,96.8,1006.4,331.3,2.8,4.4,339.4,0.04,15.2,17.9,"06:29:12",1
"22/05/23","06:40",0.0,16.0,96.8,1006.7,333.9,2.6,4.5,329.8,0.05,15.5,17.8,"06:30:08",1
"22/05/23","06:50",0.0,16.2,96.7,1006.4,353.2,1.5,3.1,340.6,0.07,15.7,17.8,"06:45:20",1
"22/05/23","07:00",0.0,16.5,96.6,1006.4,351.5,1.8,3.1,345.4,0.08,16.0,17.8,"06:51:28",1
"22/05/23","07:10",0.0,16.6,96.4,1006.7,340.6,2.5,5.4,325.6,0.10,16.1,17.9,"07:09:28",1
"22/05/23","07:20",0.0,17.1,96.3,1006.7,346.7,2.3,3.9,344.8,0.12,16.5,17.7,"07:15:52",1
"22/05/23","07:30",0.0,17.5,95.8,1006.9,347.0,2.1,3.7,338.8,0.14,16.9,17.8,"07:25:28",1
"22/05/23","07:40",0.0,17.8,95.3,1006.9,338.6,2.6,3.9,338.1,0.17,17.1,17.6,"07:33:44",1
"22/05/23","07:50",0.0,18.1,94.6,1006.9,324.7,2.3,3.7,321.4,0.19,17.3,17.7,"07:42:32",1
"22/05/23","08:00",0.0,18.6,93.8,1007.1,333.2,2.2,3.7,347.3,0.21,17.6,17.7,"07:55:44",1
"22/05/23","08:10",0.0,18.8,91.8,1007.6,331.6,2.3,3.6,341.6,0.23,17.5,17.7,"08:09:44",1
"22/05/23","08:20",0.0,19.6,89.4,1007.4,331.6,2.1,4.0,346.9,0.26,17.8,17.5,"08:17:28",1
"22/05/23","08:30",0.0,20.5,83.9,1007.4,336.4,2.1,4.1,346.2,0.29,17.7,17.7,"08:20:56",1
"22/05/23","08:40",0.0,20.9,76.8,1007.6,335.1,2.2,3.7,338.0,0.31,16.7,17.7,"08:38:16",1
"22/05/23","08:50",0.0,21.1,72.7,1007.1,315.5,2.1,3.4,318.5,0.34,16.1,17.7,"08:44:40",1
"22/05/23","09:00",0.0,21.5,70.3,1007.1,330.9,2.2,4.7,354.5,0.36,15.9,17.7,"08:58:16",1
"22/05/23","09:10",0.0,21.4,68.5,1007.1,334.0,2.5,4.7,311.3,0.38,15.4,17.8,"09:05:52",1
"22/05/23","09:20",0.0,21.8,67.8,1006.9,330.5,2.6,4.8,351.4,0.42,15.6,18.0,"09:19:44",1
"22/05/23","09:30",0.0,22.1,64.4,1006.7,355.8,2.5,4.0,350.5,0.45,15.1,17.8,"09:27:12",1
"22/05/23","09:40",0.0,22.8,61.7,1006.4,12.3,2.0,3.9,3.3,0.47,15.1,17.9,"09:33:20",1
"22/05/23","09:50",0.0,23.6,60.8,1006.2,1.0,1.5,4.0,3.0,0.49,15.6,18.0,"09:40:16",1
"22/05/23","10:00",0.0,23.3,58.9,1006.0,347.9,2.0,3.6,13.2,0.51,14.9,17.8,"09:50:32",1
"22/05/23","10:10",0.0,23.5,56.4,1006.0,17.3,2.0,3.9,28.5,0.53,14.4,17.9,"10:09:36",1
"22/05/23","10:20",0.0,23.8,56.6,1006.0,15.8,2.0,5.5,0.3,0.54,14.7,18.0,"10:15:52",1
"22/05/23","10:30",0.0,23.2,54.9,1005.7,348.1,2.6,5.6,353.7,0.56,13.7,17.9,"10:25:52",1
"22/05/23","10:40",0.2,23.9,55.2,1006.0,354.4,2.6,5.2,1.2,0.57,14.4,18.2,"10:36:56",1
"22/05/23","10:50",0.0,23.5,53.8,1005.5,352.1,3.7,7.1,328.4,0.58,13.6,18.1,"10:42:24",1
"22/05/23","11:00",0.0,24.0,52.6,1005.7,14.7,2.5,4.4,35.7,0.59,13.8,18.1,"10:50:24",1
"22/05/23","11:10",0.0,24.6,50.8,1005.2,19.6,2.0,5.7,38.1,0.60,13.8,18.1,"11:09:44",1
"22/05/23","11:20",0.0,24.1,51.9,1005.2,345.8,3.5,6.2,339.4,0.61,13.6,18.1,"11:15:44",1
"22/05/23","11:30",0.0,24.8,51.4,1005.5,349.3,2.6,6.5,339.2,0.61,14.1,18.1,"11:24:56",1
"22/05/23","11:40",0.0,24.9,48.5,1005.5,350.4,2.8,5.8,341.4,0.62,13.3,18.3,"11:36:32",1
"22/05/23","11:50",0.0,25.1,46.0,1005.2,4.0,2.3,4.9,357.4,0.62,12.7,18.4,"11:47:36",1
"22/05/23","12:00",0.0,25.8,46.7,1005.2,41.7,1.3,3.1,18.4,0.63,13.6,18.5,"11:50:08",1
"22/05/23","12:10",0.0,25.4,45.9,1005.0,7.0,2.1,6.2,324.9,0.63,13.0,18.5,"12:04:16",1
"22/05/23","12:20",0.0,26.0,46.0,1005.0,29.7,1.2,2.9,39.4,0.62,13.5,18.5,"12:14:08",1
"22/05/23","12:30",0.0,25.3,43.8,1005.2,324.9,2.7,7.2,332.7,0.63,12.2,18.6,"12:28:00",1
"22/05/23","12:40",0.0,25.4,45.6,1005.2,330.0,3.5,6.3,336.6,0.63,12.9,18.8,"12:36:40",1
"22/05/23","12:50",0.0,25.7,44.3,1005.0,343.8,3.1,6.5,314.5,0.63,12.7,18.8,"12:42:00",1
"22/05/23","13:00",0.0,25.6,40.6,1005.0,347.2,3.7,8.3,341.0,0.62,11.3,18.7,"12:52:16",1
"22/05/23","13:10",0.0,26.3,40.6,1004.8,337.1,2.5,5.9,343.0,0.62,11.9,18.7,"13:08:40",1
"22/05/23","13:20",0.0,26.2,38.5,1005.0,357.1,3.0,5.5,345.8,0.62,11.0,18.8,"13:17:44",1
"22/05/23","13:30",0.0,26.3,35.3,1005.0,5.6,3.0,6.0,348.7,0.61,9.8,18.9,"13:25:52",1
"22/05/23","13:40",0.0,26.6,36.8,1004.5,9.2,2.7,4.9,343.9,0.61,10.7,18.9,"13:34:08",1
"22/05/23","13:50",0.0,26.5,36.9,1005.0,16.9,3.0,7.0,21.4,0.58,10.6,19.0,"13:42:32",1
"22/05/23","14:00",0.0,26.7,37.8,1004.8,18.7,2.3,5.9,44.8,0.56,11.2,19.0,"13:56:40",1
"22/05/23","14:10",0.0,26.7,36.1,1004.5,357.0,3.0,7.8,348.8,0.56,10.5,19.0,"14:02:56",1
"22/05/23","14:20",0.0,27.1,34.0,1004.3,5.6,2.2,4.7,12.4,0.56,9.9,19.2,"14:17:36",1
"22/05/23","14:30",0.0,27.0,34.4,1004.8,14.7,2.3,5.4,19.8,0.54,10.0,19.1,"14:22:56",1
"22/05/23","14:40",0.0,26.8,36.4,1004.5,355.1,3.4,6.0,350.2,0.51,10.7,19.4,"14:31:52",1
"22/05/23","14:50",0.0,27.2,35.4,1004.3,1.1,2.6,5.8,355.6,0.51,10.6,19.2,"14:45:44",1
"22/05/23","15:00",0.0,27.0,33.1,1005.0,20.5,2.3,5.8,345.5,0.49,9.5,19.3,"14:50:08",1
"22/05/23","15:10",0.0,27.1,33.2,1005.0,14.5,2.1,4.9,2.6,0.47,9.6,19.0,"15:09:12",1
"22/05/23","15:20",0.0,26.7,33.0,1005.0,2.4,3.2,5.9,15.2,0.46,9.1,19.5,"15:17:36",1
"22/05/23","15:30",0.0,26.6,34.0,1005.2,22.3,2.5,6.0,21.5,0.44,9.5,19.5,"15:22:40",1
"22/05/23","15:40",0.0,26.8,34.7,1005.0,9.3,2.6,5.5,12.2,0.40,10.0,19.6,"15:37:44",1
"22/05/23","15:50",0.0,26.6,34.0,1005.0,7.3,3.0,5.6,349.7,0.41,9.5,19.5,"15:41:36",1
"22/05/23","16:00",0.0,26.8,34.1,1005.5,359.3,2.6,4.9,351.0,0.38,9.7,19.6,"15:56:56",1
"22/05/23","16:10",0.0,26.7,36.9,1005.5,15.4,2.2,5.2,359.0,0.36,10.8,19.5,"16:06:40",1
"22/05/23","16:20",0.0,26.5,34.7,1005.2,354.2,3.0,5.7,340.1,0.33,9.7,19.6,"16:16:48",1
"22/05/23","16:30",0.0,26.5,36.4,1005.7,345.9,2.5,4.4,342.9,0.31,10.4,19.8,"16:20:02",1
"22/05/23","16:40",0.0,26.5,36.8,1005.7,358.0,2.5,4.2,352.5,0.29,10.6,19.8,"16:35:36",1
"22/05/23","16:50",0.0,25.9,37.0,1006.0,346.7,3.0,5.7,334.8,0.24,10.1,19.9,"16:46:00",1
"22/05/23","17:00",0.0,25.5,37.1,1006.0,338.0,3.9,6.7,340.2,0.23,9.8,19.7,"16:58:08",1
"22/05/23","17:10",0.0,25.5,35.6,1005.7,348.1,3.5,6.2,319.9,0.22,9.2,19.6,"17:00:16",1
"22/05/23","17:20",0.0,25.2,33.5,1006.2,349.0,3.5,6.4,308.2,0.19,8.1,19.7,"17:16:40",1
"22/05/23","17:30",0.0,24.6,31.7,1006.0,347.3,3.4,6.7,343.5,0.09,6.7,19.7,"17:25:28",1
"22/05/23","17:40",0.0,24.3,32.4,1006.4,341.6,2.8,5.2,355.0,0.08,6.8,19.8,"17:36:32",1
"22/05/23","17:50",0.0,24.1,33.9,1006.2,342.3,2.1,4.0,347.9,0.06,7.3,19.7,"17:48:32",1
"22/05/23","18:00",0.0,23.9,34.4,1006.7,335.8,2.8,4.5,334.4,0.05,7.3,19.8,"17:54:24",1
"22/05/23","18:10",0.0,23.7,35.9,1006.7,349.4,2.5,4.3,351.7,0.05,7.8,19.8,"18:08:56",1
"22/05/23","18:20",0.0,23.4,36.8,1007.1,349.8,2.2,4.9,353.2,0.04,7.9,19.7,"18:16:40",1
"22/05/23","18:30",0.0,23.1,38.8,1007.1,348.5,2.1,3.5,355.6,0.03,8.4,20.0,"18:21:28",1
"22/05/23","18:40",0.0,22.6,42.5,1007.1,343.3,2.0,3.1,341.6,0.02,9.3,19.7,"18:38:56",1
"22/05/23","18:50",0.0,22.5,43.3,1007.1,340.6,2.1,3.5,338.6,0.02,9.5,19.9,"18:49:44",1
"22/05/23","19:00",0.0,22.4,41.2,1007.1,341.6,2.3,4.4,345.3,0.01,8.6,19.7,"18:57:28",1
"22/05/23","19:10",0.0,21.8,45.2,1007.6,347.2,1.7,3.3,347.3,0.00,9.5,19.5,"19:00:48",1
"22/05/23","19:20",0.0,20.9,47.6,1008.1,340.6,1.5,2.5,351.9,0.00,9.4,19.7,"19:14:48",1
"22/05/23","19:30",0.0,20.3,49.7,1008.3,332.3,1.7,2.7,323.3,0.00,9.5,19.6,"19:28:48",1
"22/05/23","19:40",0.0,19.8,52.7,1008.3,309.5,1.5,3.1,307.2,0.00,9.9,19.6,"19:31:52",1
"22/05/23","19:50",0.0,19.3,55.0,1008.8,338.2,1.3,2.1,344.4,0.00,10.1,19.7,"19:45:44",1
"22/05/23","20:00",0.0,18.8,57.0,1008.8,358.9,1.2,1.8,4.7,0.00,10.2,19.6,"19:53:20",1
"22/05/23","20:10",0.0,18.2,57.9,1008.8,328.5,0.7,1.7,3.4,0.00,9.8,19.6,"20:01:28",1
"22/05/23","20:20",0.0,18.0,59.9,1008.6,342.4,1.5,2.1,339.8,0.00,10.1,19.6,"20:19:12",1
"22/05/23","20:30",0.0,17.6,62.6,1008.8,339.4,2.1,3.1,345.0,0.00,10.4,19.6,"20:22:56",1
"22/05/23","20:40",0.0,17.6,60.3,1008.8,339.1,2.0,3.3,346.8,0.00,9.9,19.3,"20:36:08",1
"22/05/23","20:50",0.0,18.4,56.4,1009.0,321.6,1.1,4.3,344.9,0.00,9.6,19.5,"20:40:48",1
"22/05/23","21:00",0.0,18.3,55.5,1009.5,321.3,2.2,3.6,334.4,0.00,9.3,19.6,"20:59:44",1
"22/05/23","21:10",0.0,18.1,56.4,1009.3,308.9,1.5,3.3,306.6,0.00,9.3,19.4,"21:02:00",1
"22/05/23","21:20",0.0,17.5,58.1,1009.3,251.1,1.2,2.1,251.6,0.00,9.2,19.3,"21:18:56",1
"22/05/23","21:30",0.0,17.3,58.7,1009.5,265.2,1.3,2.5,316.0,0.00,9.2,19.3,"21:20:02",1
"22/05/23","21:40",0.0,17.1,59.4,1009.5,267.3,1.1,2.5,329.8,0.00,9.2,19.4,"21:30:40",1
"22/05/23","21:50",0.0,16.5,60.9,1010.0,214.1,0.5,1.1,254.7,0.00,9.0,19.2,"21:40:48",1
"22/05/23","22:00",0.0,16.4,61.5,1009.7,292.5,1.3,3.2,332.6,0.00,9.0,19.1,"21:59:04",1
"22/05/23","22:10",0.0,17.7,57.5,1010.0,325.5,3.0,4.7,339.2,0.00,9.3,19.1,"22:09:36",1
"22/05/23","22:20",0.0,17.5,58.3,1010.0,329.0,2.2,4.1,343.8,0.00,9.3,19.2,"22:10:32",1
"22/05/23","22:30",0.0,17.3,58.7,1009.7,337.6,2.3,3.4,345.4,0.00,9.2,18.9,"22:26:32",1
"22/05/23","22:40",0.0,17.0,60.3,1009.5,335.2,2.0,2.9,337.8,0.00,9.3,19.0,"22:39:04",1
"22/05/23","22:50",0.0,17.0,59.6,1010.2,319.3,2.2,2.9,330.6,0.00,9.1,19.1,"22:42:40",1
"22/05/23","23:00",0.0,16.5,61.9,1010.2,299.1,1.6,2.1,316.1,0.00,9.2,18.8,"22:50:48",1
"22/05/23","23:10",0.0,16.3,62.8,1010.4,320.8,2.8,4.1,316.6,0.00,9.2,18.7,"23:04:18",1
"22/05/23","23:20",0.0,17.0,60.0,1010.0,319.8,3.1,4.5,338.8,0.00,9.2,18.7,"23:13:36",1
"22/05/23","23:30",0.0,17.0,59.9,1010.4,327.2,2.6,3.9,332.9,0.00,9.2,18.8,"23:21:28",1
"22/05/23","23:40",0.0,16.6,62.5,1010.2,336.8,2.2,3.3,352.8,0.00,9.5,18.8,"23:31:28",1
"22/05/23","23:50",0.0,16.3,63.5,1010.4,318.2,2.1,3.1,335.2,0.00,9.4,18.7,"23:48:40",1
"22/05/23","24:00",0.0,16.2,64.5,1010.4,336.0,2.5,4.1,344.0,0.00,9.5,18.8,"23:54:48",1
